Location: Sternwarte Radebeul
(51.1160°N, 13.6224°E)
Time: 17:05:37
(UTC+01:00)

ISS - Pass Details

Date: 22 January 2020
Orbit: 415 x 422 km, 51.6° (Epoch: 26 February)

Event Time Altitude Azimuth Distance (km) Brightness Sun altitude
Rises 18:18:41 0° 209° (SSW) 2,369 0.7 -15.5°
Reaches altitude 10° 18:21:08 10° 191° (SSW) 1,507 -0.7 -15.8°
Maximum altitude 18:23:40 20° 143° (SE) 1,053 -2.0 -16.2°
Enters shadow 18:23:49 20° 139° (SE) 1,055 -2.0 -16.2°
